Ciampino, Italy

5:27 PM CET on December 07, 2016 (GMT +0100)
Ciampino

Weather History for LIRA - September, 2012

Change the Weather History Date:

Sunday, September 16, 2012

  Actual Average Record
Temperature  
Mean Temperature 68 °F -  
Max Temperature 77 °F 76 °F 93 °F (2011)
Min Temperature 59 °F 59 °F 53 °F (1998)
Cooling Degree Days 3    
Growing Degree Days 18 (Base 50)    
Moisture  
Dew Point 60 °F    
Average Humidity 77    
Maximum Humidity 94    
Minimum Humidity 57    
Precipitation  
Precipitation 0.00 in - - ()
Sea Level Pressure  
Sea Level Pressure 29.91 in    
Wind  
Wind Speed 4 mph ()    
Max Wind Speed 9 mph    
Max Gust Speed -    
Visibility 6.2 miles    
Events      
Averages and records for this station are not official NWS values.
T = Trace of Precipitation, MM = Missing Value Source: Averaged Metar Reports

Daily Weather History Graph

Daily Weather History Graph

Search for Another Location

Airport or City:

Trip Planner

Search our weather history database for the weather conditions in past years. The results will help you decide how hot, cold, wet, or windy it might be!

Date:

Astronomy

Sep. 16, 2012 Rise Set
Actual Time 6:51 AM CEST 7:16 PM CEST
Civil Twilight 6:23 AM CEST 7:44 PM CEST
Nautical Twilight 5:50 AM CEST 8:17 PM CEST
Astronomical Twilight 5:16 AM CEST 8:51 PM CEST
Moon 7:11 AM CEST (9/16) 7:10 PM CEST (9/16)
Length of Visible Light 13h 21m
Length of Day
12h 25m
New Moon, 0% of the Moon is Illuminated
Sep 16
New Moon
Sep 22
First Quarter
Sep 30
Full
Oct 8
Last Quarter
Oct 15
New

Hourly Weather History & Observations

Time (CEST) Temp. Dew Point Humidity Pressure Visibility Wind Dir Wind Speed Gust Speed Precip Events Conditions
12:15 AM 66.2 °F 59.0 °F 78% 29.89 in - NNE 6.9 mph - N/A   Clear
12:45 AM 66.2 °F 59.0 °F 78% 29.89 in - NNE 3.5 mph - N/A   Clear
1:15 AM 66.2 °F 59.0 °F 78% 29.89 in - North 4.6 mph - N/A   Clear
1:45 AM 66.2 °F 59.0 °F 78% 29.89 in - North 4.6 mph - N/A   Clear
2:15 AM 64.4 °F 57.2 °F 77% 29.89 in - NNE 3.5 mph - N/A   Clear
2:45 AM 64.4 °F 59.0 °F 83% 29.89 in - NNE 4.6 mph - N/A   Clear
3:15 AM 64.4 °F 57.2 °F 77% 29.89 in - Calm Calm - N/A   Clear
3:45 AM 62.6 °F 57.2 °F 82% 29.89 in - Calm Calm - N/A   Clear
4:15 AM 62.6 °F 57.2 °F 82% 29.89 in 6.2 mi Calm Calm - N/A   Partly Cloudy
4:45 AM 60.8 °F 55.4 °F 82% 29.89 in 6.2 mi Calm Calm - N/A   Partly Cloudy
5:15 AM 60.8 °F 57.2 °F 88% 29.89 in 6.2 mi NE 4.6 mph - N/A   Scattered Clouds
5:45 AM 60.8 °F 55.4 °F 82% 29.89 in 6.2 mi ENE 3.5 mph - N/A   Scattered Clouds
6:15 AM 60.8 °F 57.2 °F 88% 29.89 in 6.2 mi ENE 3.5 mph - N/A   Scattered Clouds
6:45 AM 60.8 °F 57.2 °F 88% 29.89 in 6.2 mi NE 4.6 mph - N/A   Scattered Clouds
7:15 AM 59.0 °F 55.4 °F 88% 29.89 in 6.2 mi NE 4.6 mph - N/A   Mostly Cloudy
7:45 AM 59.0 °F 55.4 °F 88% 29.92 in 6.2 mi NE 3.5 mph - N/A   Mostly Cloudy
8:15 AM 60.8 °F 57.2 °F 88% 29.92 in 6.2 mi NNE 3.5 mph - N/A   Mostly Cloudy
8:45 AM 60.8 °F 57.2 °F 88% 29.92 in 6.2 mi NNE 5.8 mph - N/A   Mostly Cloudy
9:15 AM 62.6 °F 59.0 °F 88% 29.92 in 6.2 mi NE 5.8 mph - N/A   Mostly Cloudy
9:45 AM 66.2 °F 60.8 °F 83% 29.92 in 6.2 mi NNE 4.6 mph - N/A   Scattered Clouds
10:15 AM 69.8 °F 60.8 °F 73% 29.92 in 6.2 mi NE 6.9 mph - N/A   Scattered Clouds
10:45 AM 71.6 °F 60.8 °F 69% 29.92 in 6.2 mi NNE 5.8 mph - N/A   Scattered Clouds
11:15 AM 71.6 °F 60.8 °F 69% 29.92 in 6.2 mi NNE 5.8 mph - N/A   Scattered Clouds
11:45 AM 75.2 °F 60.8 °F 61% 29.92 in 6.2 mi North 3.5 mph - N/A   Partly Cloudy
12:15 PM 75.2 °F 60.8 °F 61% 29.92 in 6.2 mi NE 3.5 mph - N/A   Partly Cloudy
12:45 PM 75.2 °F 60.8 °F 61% 29.92 in 6.2 mi ENE 2.3 mph - N/A   Partly Cloudy
1:15 PM 77.0 °F 60.8 °F 57% 29.92 in 6.2 mi North 3.5 mph - N/A   Partly Cloudy
1:45 PM 75.2 °F 59.0 °F 57% 29.92 in 6.2 mi West 2.3 mph - N/A   Partly Cloudy
2:15 PM 75.2 °F 60.8 °F 61% 29.92 in 6.2 mi SW 5.8 mph - N/A   Partly Cloudy
2:45 PM 75.2 °F 62.6 °F 65% 29.92 in 6.2 mi SW 6.9 mph - N/A   Partly Cloudy
3:15 PM 75.2 °F 62.6 °F 65% 29.92 in 6.2 mi South 8.1 mph - N/A   Mostly Cloudy
3:45 PM 75.2 °F 64.4 °F 69% 29.89 in 6.2 mi South 8.1 mph - N/A   Mostly Cloudy
4:15 PM 77.0 °F 64.4 °F 65% 29.89 in 6.2 mi SSW 9.2 mph - N/A   Scattered Clouds
4:45 PM 75.2 °F 62.6 °F 65% 29.89 in 6.2 mi SSW 8.1 mph - N/A   Partly Cloudy
5:15 PM 75.2 °F 62.6 °F 65% 29.89 in 6.2 mi SSW 5.8 mph - N/A   Partly Cloudy
5:45 PM 75.2 °F 64.4 °F 69% 29.89 in 6.2 mi SW 5.8 mph - N/A   Partly Cloudy
6:15 PM 73.4 °F 64.4 °F 73% 29.89 in 6.2 mi SSW 8.1 mph - N/A   Partly Cloudy
6:45 PM 73.4 °F 62.6 °F 69% 29.89 in 6.2 mi SW 5.8 mph - N/A   Partly Cloudy
7:15 PM 73.4 °F 64.4 °F 73% 29.89 in 6.2 mi SW 4.6 mph - N/A   Partly Cloudy
7:45 PM 71.6 °F 64.4 °F 78% 29.92 in 6.2 mi SSW 3.5 mph - N/A   Partly Cloudy
8:15 PM 69.8 °F 64.4 °F 83% 29.92 in 6.2 mi SW 3.5 mph - N/A   Partly Cloudy
9:15 PM 69.8 °F 64.4 °F 83% 29.92 in 6.2 mi South 3.5 mph - N/A   Partly Cloudy
9:45 PM 68.0 °F 64.4 °F 88% 29.92 in 6.2 mi West 1.2 mph - N/A   Partly Cloudy
10:15 PM 66.2 °F 62.6 °F 88% 29.92 in 6.2 mi South 2.3 mph - N/A   Partly Cloudy
10:45 PM 66.2 °F 62.6 °F 88% 29.92 in 6.2 mi South 1.2 mph - N/A   Partly Cloudy
11:15 PM 66.2 °F 62.6 °F 88% 29.92 in 6.2 mi SE 2.3 mph - N/A   Partly Cloudy
11:45 PM 64.4 °F 62.6 °F 94% 29.92 in - Calm Calm - N/A   Clear